EW4229 Weather Reports


Display with metric or nautical units.
time (UTC)temp
F
wind
direction
speed
MPH
gust
MPH
rain 1hr
in
rain 24hr
in
rain mn
in
humidity
%
barometer
mb
20260905120100 71 341 0.0 0.0 0.00 0.00 0.00 81 1011.9
20260905114627 71 341 0.0 0.0 0.00 0.00 0.00 81 1011.8
20260905113057 70 18 0.0 0.0 0.00 0.00 0.00 83 1011.5
20260905111556 70 18 0.0 0.0 0.00 0.00 0.00 82 1011.5
20260905110055 70 18 0.0 0.0 0.00 0.00 0.00 82 1011.5
20260905104559 70 18 0.0 0.0 0.00 0.00 0.00 83 1011.2
20260905103058 70 19 0.0 0.0 0.00 0.00 0.00 83 1010.9
20260905101557 70 18 0.0 0.0 0.00 0.00 0.00 85 1011.0
20260905100112 70 19 0.0 0.0 0.00 0.00 0.00 85 1010.7
20260905094605 71 19 0.0 0.0 0.00 0.00 0.00 84 1010.7
20260905093055 70 18 0.0 1.0 0.00 0.00 0.00 84 1010.7
20260905091559 71 18 0.0 0.0 0.00 0.00 0.00 85 1010.5
20260905090048 71 18 0.0 0.0 0.00 0.00 0.00 84 1010.6
20260905084549 71 18 0.0 1.0 0.00 0.00 0.00 83 1010.5
20260905083045 72 6 0.0 1.0 0.00 0.00 0.00 80 1010.6
20260905081544 73 4 0.0 1.0 0.00 0.00 0.00 80 1010.6
20260905080043 73 137 0.0 3.0 0.00 0.00 0.00 79 1010.8
20260905074553 73 327 1.0 3.0 0.00 0.00 0.00 84 1010.8
20260905073057 73 300 0.0 2.0 0.00 0.00 0.00 89 1010.8
20260905071539 0 0.0 0.0 0.00 0.00 0.00 1010.8
20260905070036 73 285 0.0 2.0 0.00 0.00 0.00 91 1010.8
20260905064533 73 285 0.0 3.0 0.00 0.00 0.00 91 1010.8
20260905063032 73 288 0.0 3.0 0.00 0.00 0.00 90 1010.9
20260905061529 0 0.0 0.0 0.00 0.00 0.00 1010.9
20260905060025 0 304 0.0 0.0 0.00 0.00 0.00 1010.9
20260905054521 0 0.0 0.0 0.00 0.00 0.00 1011.0
20260905053017 75 351 0.0 3.0 0.00 0.00 0.00 85 1011.2
20260905051516 74 301 0.0 3.0 0.00 0.00 0.00 87 1011.5
20260905050018 74 320 0.0 1.0 0.00 0.00 0.00 87 1011.7
20260905044514 75 347 0.0 1.0 0.00 0.00 0.00 87 1011.5
20260905043014 75 2 0.0 2.0 0.00 0.00 0.00 87 1011.4
20260905041508 73 281 0.0 0.0 0.00 0.00 0.00 93 1011.4
20260905040014 74 281 0.0 0.0 0.00 0.00 0.00 92 1011.6
20260905034507 75 311 0.0 0.0 0.00 0.00 0.00 86 1011.5
20260905033019 76 311 0.0 0.0 0.00 0.00 0.00 84 1011.5
20260905031506 76 311 0.0 0.0 0.00 0.00 0.00 85 1011.4
20260905030007 77 309 0.0 0.0 0.00 0.00 0.00 83 1011.3
20260905024506 78 315 0.0 2.0 0.00 0.00 0.00 80 1011.3
20260905023027 77 309 0.0 2.0 0.00 0.00 0.00 81 1011.2
20260905021506 77 318 0.0 0.0 0.00 0.00 0.00 82 1011.1
20260905020009 77 326 0.0 2.0 0.00 0.00 0.00 81 1011.0
20260905014505 78 318 0.0 1.0 0.00 0.00 0.00 79 1011.0
20260905013004 80 317 0.0 2.0 0.00 0.00 0.00 76 1010.9
20260905011504 79 287 0.0 4.0 0.00 0.00 0.00 80 1011.0
20260905010004 79 299 2.0 5.0 0.00 0.00 0.00 79 1010.9
20260905004503 78 289 1.0 4.0 0.00 0.00 0.00 83 1010.9
20260905003002 78 280 0.0 3.0 0.00 0.00 0.00 82 1010.8
20260905001609 0 0.0 0.0 0.00 0.00 0.00 1010.6
20260905001503 0 0.0 0.0 0.00 0.00 0.00 1010.6
20260905000113 78 267 0.0 0.0 0.00 0.00 0.00 84 1010.6
20260904234557 78 267 0.0 0.0 0.00 0.00 0.00 83 1010.6
20260904233058 78 268 0.0 1.0 0.00 0.00 0.00 82 1010.5
20260904231601 80 270 0.0 2.0 0.00 0.00 0.00 82 1010.5
20260904230057 81 299 1.0 3.0 0.00 0.00 0.00 77 1010.6
20260904224603 83 314 2.0 4.0 0.00 0.00 0.00 68 1010.6
20260904223057 83 316 1.0 3.0 0.00 0.00 0.00 67 1010.6
20260904221555 83 319 2.0 5.0 0.00 0.00 0.00 66 1010.4
20260904220111 84 319 1.0 4.0 0.00 0.00 0.00 66 1010.7
20260904214553 83 296 3.0 6.0 0.00 0.00 0.00 72 1011.1
20260904213052 84 295 2.0 7.0 0.00 0.00 0.00 73 1011.2
20260904211558 0 0.0 0.0 0.00 0.00 0.00 1010.9
20260904210059 83 287 3.0 6.0 0.00 0.00 0.00 72 1011.0
20260904204548 83 297 2.0 5.0 0.00 0.00 0.00 73 1011.1
20260904203045 84 279 3.0 7.0 0.00 0.00 0.00 73 1011.3
20260904201542 85 322 2.0 7.0 0.00 0.00 0.00 71 1011.1
20260904200041 84 306 3.0 6.0 0.00 0.00 0.00 74 1011.2
20260904194551 84 281 3.0 8.0 0.00 0.00 0.00 72 1011.3
20260904193040 0 0.0 0.0 0.00 0.00 0.00 1011.4
20260904191540 0 0.0 0.0 0.00 0.00 0.00 1011.6
20260904190029 83 288 2.0 6.0 0.00 0.00 0.00 65 1012.2
20260904184529 83 323 2.0 6.0 0.00 0.00 0.00 65 1012.5
20260904183028 83 302 6.0 11.0 0.00 0.00 0.00 64 1012.7
20260904181526 84 314 6.0 12.0 0.00 0.00 0.00 62 1012.7
20260904180024 84 306 6.0 11.0 0.00 0.00 0.00 63 1012.8
20260904174551 83 293 5.0 9.0 0.00 0.00 0.00 63 1012.7
20260904173021 83 313 3.0 9.0 0.00 0.00 0.00 65 1012.8
20260904171522 83 332 4.0 11.0 0.00 0.00 0.00 65 1013.1
20260904170022 82 333 3.0 8.0 0.00 0.00 0.00 66 1013.0
20260904164516 82 304 2.0 6.0 0.00 0.00 0.00 66 1013.1
20260904163013 82 288 1.0 9.0 0.00 0.00 0.00 67 1013.2
20260904161512 82 331 2.0 6.0 0.00 0.00 0.00 68 1013.4
20260904160010 81 17 4.0 8.0 0.00 0.00 0.00 68 1013.3
20260904154507 81 299 3.0 8.0 0.00 0.00 0.00 67 1013.4
20260904153005 81 289 3.0 7.0 0.00 0.00 0.00 69 1013.4
20260904151502 80 309 3.0 7.0 0.00 0.00 0.00 71 1013.4
20260904150059 80 11 2.0 6.0 0.00 0.00 0.00 71 1013.4
20260904144558 79 300 3.0 8.0 0.00 0.00 0.00 71 1013.4
20260904143054 0 0.0 0.0 0.00 0.00 0.00 1013.5
20260904141550 0 0.0 0.0 0.00 0.00 0.00 1013.6
20260904140048 0 0.0 0.0 0.00 0.00 0.00 1013.5
20260904134547 0 0.0 0.0 0.00 0.00 0.00 1013.3
20260904133039 0 0.0 0.0 0.00 0.00 0.00 1013.4
20260904131535 0 359 1.0 0.0 0.00 0.00 0.00 1013.5
20260904130030 0 0.0 0.0 0.00 0.00 0.00 1013.6
20260904124532 75 345 0.0 4.0 0.00 0.00 0.00 83 1013.6
20260904123029 74 324 0.0 3.0 0.00 0.00 0.00 84 1013.8
20260904121528 74 18 1.0 4.0 0.00 0.00 0.00 86 1013.8